Weather History for Melbourne, FL

Change the Weather History Date:

Tuesday, October 30, 2012

  Actual Average Record
Temperature  
Mean Temperature 57 °F 73 °F  
Max Temperature 69 °F 81 °F 93 °F (1980)
Min Temperature 45 °F 64 °F 42 °F (1937)
Degree Days  
Heating Degree Days 8 0  
Month to date heating degree days 14 0  
Since 1 July heating degree days 14 0  
Cooling Degree Days 0 8  
Month to date cooling degree days 357 336  
Year to date cooling degree days 3331 3028  
Growing Degree Days 7 (Base 50)    
Moisture  
Dew Point 39 °F    
Average Humidity 58    
Maximum Humidity 86    
Minimum Humidity 30    
Precipitation  
Precipitation 0.00 in 0.11 in 1.98 in (1954)
Month to date precipitation 3.04 4.95  
Year to date precipitation 36.91 46.44  
Sea Level Pressure  
Sea Level Pressure 29.87 in    
Wind  
Wind Speed 12 mph (West)    
Max Wind Speed 26 mph    
Max Gust Speed 36 mph    
Visibility 10 miles    
Events      
T = Trace of Precipitation, MM = Missing Value Source: NWS Daily Summary

Daily Weather History Graph

Daily Weather History Graph

Search for Another Location

Airport:

Trip Planner

Search our weather history database for the weather conditions in past years. The results will help you decide how hot, cold, wet, or windy it might be!

Date:

Astronomy

Oct. 30, 2012 Rise Set
Actual Time 7:32 AM EDT 6:39 PM EDT
Civil Twilight 7:08 AM EDT 7:03 PM EDT
Nautical Twilight 6:40 AM EDT 7:31 PM EDT
Astronomical Twilight 6:13 AM EDT 7:58 PM EDT
Moon 7:14 PM EDT (10/30) 8:12 AM EDT (10/30)
Length of Visible Light 11h 54m
Length of Day
11h 06m
Full, 99% of the Moon is Illuminated
Oct 30
Full
Nov 6
Last Quarter
Nov 13
New
Nov 20
First Quarter
Nov 28
Full

Hourly Weather History & Observations

Time (EDT) Temp. Windchill Dew Point Humidity Pressure Visibility Wind Dir Wind Speed Gust Speed Precip Events Conditions
12:53 AM 48.9 °F - 44.1 °F 83% 29.83 in 10.0 mi WNW 6.9 mph - N/A   Clear
1:53 AM 50.0 °F - 43.0 °F 77% 29.82 in 10.0 mi West 6.9 mph - N/A   Clear
2:53 AM 48.9 °F - 42.1 °F 77% 29.81 in 10.0 mi West 8.1 mph - N/A   Clear
3:53 AM 48.0 °F - 39.0 °F 71% 29.82 in 10.0 mi West 9.2 mph - N/A   Clear
4:53 AM 46.9 °F - 37.9 °F 71% 29.84 in 10.0 mi West 8.1 mph - N/A   Clear
5:53 AM 46.0 °F 41.0 °F 37.0 °F 71% 29.86 in 10.0 mi West 10.4 mph - N/A   Clear
7:53 AM 46.9 °F - 36.0 °F 66% 29.89 in 10.0 mi West 8.1 mph - N/A   Clear
8:53 AM 51.1 °F - 36.0 °F 56% 29.91 in 10.0 mi West 12.7 mph 18.4 mph N/A   Clear
9:53 AM 54.0 °F - 33.1 °F 45% 29.91 in 10.0 mi WNW 12.7 mph - N/A   Clear
10:53 AM 57.9 °F - 36.0 °F 44% 29.91 in 10.0 mi WSW 12.7 mph - N/A   Clear
11:53 AM 62.1 °F - 39.0 °F 43% 29.90 in 10.0 mi West 21.9 mph 27.6 mph N/A   Clear
12:53 PM 64.0 °F - 37.0 °F 37% 29.88 in 10.0 mi West 21.9 mph 31.1 mph N/A   Clear
1:53 PM 66.9 °F - 41.0 °F 39% 29.85 in 10.0 mi West 21.9 mph 28.8 mph N/A   Clear
2:53 PM 68.0 °F - 35.1 °F 30% 29.83 in 10.0 mi WSW 21.9 mph 31.1 mph N/A   Clear
3:53 PM 68.0 °F - 35.1 °F 30% 29.82 in 10.0 mi WSW 20.7 mph 31.1 mph N/A   Clear
4:53 PM 66.9 °F - 37.0 °F 33% 29.83 in 10.0 mi West 15.0 mph 31.1 mph N/A   Clear
5:53 PM 64.9 °F - 37.0 °F 36% 29.83 in 10.0 mi West 17.3 mph 24.2 mph N/A   Clear
6:53 PM 61.0 °F - 37.9 °F 42% 29.86 in 10.0 mi WSW 12.7 mph 20.7 mph N/A   Clear
7:53 PM 59.0 °F - 39.0 °F 48% 29.88 in 10.0 mi WSW 9.2 mph - N/A   Clear
8:53 PM 57.0 °F - 41.0 °F 55% 29.92 in 10.0 mi West 8.1 mph - N/A   Clear
9:53 PM 54.0 °F - 43.0 °F 66% 29.94 in 10.0 mi SW 6.9 mph - N/A   Clear
10:53 PM 54.0 °F - 45.0 °F 72% 29.96 in 10.0 mi SW 5.8 mph - N/A   Clear
11:53 PM 54.0 °F - 46.9 °F 77% 29.96 in 10.0 mi SW 6.9 mph - N/A   Clear